Погода Курган-Тюбе

Погода Курган-Тюбе : погода сейчас, прогноз погоды и архив. Всё, что Вы хотите узнать о погоде Курган-Тюбе!

Поиск расширенной информации на нашем сайте:

Другие новости

Новости СМИ2

Главная страница сайта

Новости сайта

03.07.2017

Напоминаем, что на нашем специализированном сайте Метеоцентр.Азия вы можете получить высокодетализированные автоматические прогнозы погоды по пунктам России, СНГ и мира в авиационном формате (включающие направление и скорость ветра, видимость, явления погоды, количество и форму облачности, нижнюю и верхнюю границу облачности).


Погода Курган-Тюбе - сегодня

Время (UTC), дата Ветер
(°,м/с) 
Видим.   Явления Облачность Т
(°С)
Тd
(°С)
f(%) Тe
(°С)
Pmin
(гПа)
dP
(гПа)
Po
(мм)
O2
(г/м3)
Тmin Tmax R s Состояние
почвы
06 14.02.18 360 (С) 4000 м  дождь{ливн. осадки}  10/10 600 м 
[Ns]
+9.2 +6.8 85 +9  1018.7  -1  726  282  +8.1       
09 14.02.18 360 (С) 10 км  слаб. ливневой дождь  10/8 1000 м кучево-дожд., средняя 
[Cb cap|Ac und]
+10.7 +8.5 86 +11  1015.3  -2.9  724  279           
12 14.02.18 360 (С) 20000 м    10/10 1000 м 
[Sc]
+13.8 +7 63 +14  1013.7  -1  723  276           
21 14.02.18 360 (С) н/о  слаб. ливневой дождь  10/10 1000 м кучево-дожд. 
[Cb cap]
+10 +8.4 90 +11  1017.2  0.3  725  280           
00 15.02.18 090 (В) н/о  слаб. ливневой дождь  10/10 600 м кучево-дожд. 
[Cb cap]
+10 +8.4 90 +11  1019.5  2.3  727  281           
09 15.02.18 160 (Ю) 10 км    9/9 1500 м 
[Sc]
+8.7 +1.5 61 +7  1032.2  735  287           
12 15.02.18 180 (Ю) 10 км    10/10 1500 м 
[Sc]
+7.7 +0.4 60 +6  1031.8  -0.7  735  288           
15 15.02.18 140 (ЮВ) н/о    10/10 1500 м 
[Sc]
+7 +1.3 67 +7  1032.6  0.7  735  289    +9.5       
18 15.02.18 140 (ЮВ) н/о    10/10 1500 м 
[Sc]
+6.2 +2.3 76 +6  1033.9  1.1  736  290    +9.5       
21 15.02.18 360 (С) н/о    3/0 верхняя 
[Ci fib]
+3.6 +2.3 91 +4  1034.5  736  292           
00 16.02.18 360 (С) н/о    3/0 верхняя 
[Ci sp]
+2.8 +1.8 93 +4  1032.5  -1.9  735  293           
09 16.02.18 270 (З) 10 км    4/3 1000 м верхняя 
[Cu med, cong|Ci sp]
+11.5 +1.3 49 +13  1030.8  -1  735  284           
12 16.02.18 230 (ЮЗ) 10 км    3/3 1000 м 
[Cu med, cong]
+12.5 +0 42 +13  1029.8  -0.8  728  281           
15 16.02.18 180 (Ю) н/о    ясно 
+8.5 +1.7 62 +10  1030.1  -0.4  734  286    +13       
18 16.02.18 180 (Ю) н/о    9/9 1500 м 
[Sc]
+7.7 +2.7 71 +8  1031.5  1.4  735  287    +13       
21 16.02.18 140 (ЮВ) н/о    10/10 1500 м 
[Sc]
+7.2 +4 80 +8  1032.8  736  288           
00 17.02.18 320 (СЗ) н/о    9/5 1500 м средняя 
[Sc|Ac trans]
+6.2 +4.3 88 +7  1032.5  -0.5  735  289           
03 17.02.18 090 (В) 4000 м  дымка  10/0 средняя, верхняя 
[Ac trans|Ci ing]
+5.6 +4 89 +6  1032.7  735  290  +5         
06 17.02.18 230 (ЮЗ) 4000 м  дымка  6/0 средняя, верхняя 
[Ac trans|Ci sp]
+10.2 +3.2 62 +10  1031.3  -0.3  735  285  +5         
09 17.02.18 180 (Ю) 10 км    6/0 средняя 
[Ac trans]
+14.2 -0.5 36 +15  1028.1  -2.4  733  281           
12 17.02.18 360 (С) 10 км    8/0 верхняя 
[Ci]
+13.5 -1.9 34 +15  1025.6  -2.6  731  281           
15 17.02.18 230 (ЮЗ) н/о    ясно 
+9.3 +0 52 +10  1025.5  -0.8  731  285    +15       
18 17.02.18 230 (ЮЗ) н/о    ясно 
+6.9 +1.7 69 +7  1025.2  -0.6  730  287    +15       
21 17.02.18 090 (В) н/о    8/0 верхняя 
[Ci sp]
+6.2 +2.6 78 +7  1024  -1.4  729  287           
00 18.02.18 360 (С) н/о    10/0 верхняя 
[Ci ing]
+5 +3.6 91 +6  1022.6  -1.5  728  287           
Время (UTC), дата Ветер
(°,м/с) 
Видим.   Явления Облачность Т
(°С)
Тd
(°С)
f(%) Тe
(°С)
Pmin
(гПа)
dP
(гПа)
Po
(мм)
O2
(г/м3)
Тmin Tmax R s Состояние
почвы

Для получения пояснительной информации подведите курсор к названию столбца.

ПОГОДА Курган-Тюбе - архив

Всё, что Вы хотите узнать о погоде Курган-Тюбе - удобно и подробно!

Выберите нужную дату (начиная с 1 января 2015* года) и нажмите кнопку "Найти".
Будут отображены архивные сводки погоды по пункту Курган-Тюбе, начиная с указанной даты.


Отображать данные в формате CSV (для использования в таблицах Excel)


Внимание! Наш архив погоды предназначен исключительно для личного некоммерческого использования в познавательных целях. Если Вам необходимы официальные справки о состоянии погоды (для производственных, юридических, коммерческих и т.п. целей), обращайтесь в органы Росгидромета.

*Примечание: данная дата относится к архиву по метеостанциям СССР (Россия, СНГ, Балтия).
Архив по метеостанциям Зарубежной Европы и Азии (кроме Китая) хранится 10 дней, по другим регионам земного шара (Китай, Африка, Америка, Австралия, Океания) - 1 день.

Курган-Тюбе - район местоположения метеостанции


Название, широта, долгота, высота метеостанции:
Курган-Тюбе 37.8°ш. 68.8°д. 429 м над ур. моря [Таджикистан]

Дополнительная информация

В oтличие oт бoльшинства пoгoдных сайтoв мы публикуем пoдрoбную метеoинфoрмацию в детальнoм прoфессиoнальнoм фoрмате.

Характеристики температуры и влажнoсти вoздуха измеряются на высoте 2 м в тени вдали oт зданий и деревьев.
Скoрoсть ветра измеряется на высoте 10 м (на урoвне рoста челoвека скoрoсть ветра ниже в 1.5-2 раза). Если метеoстанция нахoдится в гoрoде или в лесу, тo скoрoсть ветра занижена на 2-4 м/с пo сравнению с oткрытым местoм. Скoрoсть ветра над акватoриями крупных рек и oзёр, а также на вершинах хoлмoв на 2-5 м/с выше, чем в oбычных услoвиях.
Атмoсфернoе давление в разных тoчках местнoсти мoжет значительнo oтличаться oт давления на метеoстанции, в зависимoсти oт услoвий рельефа (при пoдъёме на 10 м давление пoнижается примернo на 1 мм рт.ст.).